| time (UTC) | temp C | wind direction | speed KPH | gust KPH | rain 1hr cm | rain 24hr cm | rain mn cm | humidity % | barometer mb |
| 20260505031511 | 11 | 224 | 0.0 | 9.7 | 0.00 | 0.00 | 0.00 | 1 | 1012.4 |
| 20260505030011 | 11 | 259 | 1.6 | 11.3 | 0.00 | 0.00 | 0.00 | 1 | 1012.5 |
| 20260505024511 | 11 | 207 | 1.6 | 11.3 | 0.00 | 0.00 | 0.00 | 1 | 1012.5 |
| 20260505023010 | 11 | 224 | 1.6 | 16.1 | 0.00 | 0.00 | 0.00 | 1 | 1012.5 |
| 20260505021509 | 11 | 255 | 0.0 | 11.3 | 0.00 | 0.00 | 0.00 | 1 | 1012.5 |
| 20260505020009 | 11 | 234 | 0.0 | 14.5 | 0.00 | 0.00 | 0.00 | 1 | 1012.5 |
| 20260505014505 | 11 | 226 | 3.2 | 14.5 | 0.00 | 0.00 | 0.00 | 1 | 1012.4 |
| 20260505013002 | 11 | 280 | 3.2 | 12.9 | 0.00 | 0.00 | 0.00 | 1 | 1012.4 |
| 20260505011559 | 11 | 249 | 4.8 | 14.5 | 0.00 | 0.00 | 0.00 | 1 | 1012.1 |
| 20260505010059 | 11 | 225 | 1.6 | 12.9 | 0.00 | 0.00 | 0.00 | 1 | 1012.1 |
| 20260505004552 | 11 | 230 | 3.2 | 16.1 | 0.00 | 0.00 | 0.00 | 1 | 1011.8 |
| 20260505003055 | 11 | 233 | 6.4 | 24.1 | 0.00 | 0.00 | 0.00 | 1 | 1011.4 |
| 20260505001542 | 11 | 277 | 3.2 | 19.3 | 0.00 | 0.00 | 0.00 | 1 | 1011.2 |
| 20260505000036 | 12 | 215 | 4.8 | 19.3 | 0.00 | 0.00 | 0.00 | 1 | 1011.0 |
| 20260504234531 | 12 | 232 | 4.8 | 19.3 | 0.00 | 0.00 | 0.00 | 1 | 1011.0 |
| 20260504233034 | 13 | 262 | 4.8 | 32.2 | 0.00 | 0.00 | 0.00 | 1 | 1010.8 |
| 20260504231525 | 13 | 143 | 8.0 | 25.7 | 0.00 | 0.00 | 0.00 | 1 | 1010.6 |
| 20260504230020 | 13 | 223 | 1.6 | 24.1 | 0.00 | 0.00 | 0.00 | 10 | 1010.5 |
| 20260504224518 | 13 | 249 | 6.4 | 17.7 | 0.00 | 0.00 | 0.00 | 18 | 1010.5 |
| 20260504223015 | 14 | 201 | 9.7 | 24.1 | 0.00 | 0.00 | 0.00 | 28 | 1010.4 |
| 20260504221506 | 15 | 205 | 8.0 | 27.4 | 0.00 | 0.00 | 0.00 | 40 | 1010.5 |
| 20260504220004 | 15 | 236 | 8.0 | 22.5 | 0.00 | 0.00 | 0.00 | 45 | 1010.4 |
| 20260504214558 | 16 | 288 | 6.4 | 30.6 | 0.00 | 0.00 | 0.00 | 46 | 1010.2 |
| 20260504213056 | 16 | 282 | 6.4 | 27.4 | 0.00 | 0.00 | 0.00 | 45 | 1010.2 |
| 20260504211633 | 16 | 247 | 8.0 | 29.0 | 0.00 | 0.00 | 0.00 | 46 | 1010.3 |
| 20260504210049 | 17 | 267 | 8.0 | 20.9 | 0.00 | 0.00 | 0.00 | 45 | 1010.2 |
| 20260504204542 | 17 | 196 | 3.2 | 27.4 | 0.00 | 0.00 | 0.00 | 45 | 1010.2 |
| 20260504203036 | 17 | 205 | 8.0 | 30.6 | 0.00 | 0.00 | 0.00 | 46 | 1009.9 |
| 20260504201531 | 17 | 254 | 12.9 | 32.2 | 0.00 | 0.00 | 0.00 | 45 | 1009.8 |
| 20260504200027 | 17 | 261 | 8.0 | 30.6 | 0.00 | 0.00 | 0.00 | 46 | 1010.1 |
| 20260504194523 | 17 | 275 | 12.9 | 35.4 | 0.00 | 0.00 | 0.00 | 46 | 1009.9 |
| 20260504193021 | 17 | 283 | 4.8 | 27.4 | 0.00 | 0.00 | 0.00 | 43 | 1009.9 |
| 20260504191513 | 17 | 192 | 11.3 | 27.4 | 0.00 | 0.00 | 0.00 | 43 | 1010.0 |
| 20260504190010 | 18 | 279 | 8.0 | 29.0 | 0.00 | 0.00 | 0.00 | 39 | 1010.3 |
| 20260504184506 | 18 | 229 | 9.7 | 33.8 | 0.00 | 0.00 | 0.00 | 39 | 1010.4 |
| 20260504183006 | 18 | 253 | 4.8 | 35.4 | 0.00 | 0.00 | 0.00 | 38 | 1010.5 |
| 20260504181602 | 18 | 211 | 8.0 | 24.1 | 0.00 | 0.00 | 0.00 | 41 | 1010.5 |
| 20260504180054 | 18 | 251 | 11.3 | 25.7 | 0.00 | 0.00 | 0.00 | 38 | 1010.7 |
| 20260504174548 | 18 | 288 | 8.0 | 19.3 | 0.00 | 0.00 | 0.00 | 38 | 1010.6 |
| 20260504173051 | 18 | 163 | 9.7 | 29.0 | 0.00 | 0.00 | 0.00 | 36 | 1010.5 |
| 20260504171541 | 18 | 271 | 8.0 | 25.7 | 0.00 | 0.00 | 0.00 | 36 | 1010.5 |
| 20260504081603 | 5 | 302 | 0.0 | 0.0 | 0.00 | 0.00 | 0.00 | 1 | 1012.3 |
| 20260504050005 | 3 | 302 | 0.0 | 0.0 | 0.00 | 0.00 | 0.00 | 1 | 1012.1 |
| 20260504044600 | 3 | 302 | 0.0 | 0.0 | 0.00 | 0.00 | 0.00 | 1 | 1012.2 |
| 20260504043101 | 3 | 302 | 0.0 | 0.0 | 0.00 | 0.00 | 0.00 | 1 | 1012.2 |
| 20260504041551 | 3 | 302 | 0.0 | 0.0 | 0.00 | 0.00 | 0.00 | 1 | 1012.1 |
| 20260504040100 | 3 | 302 | 0.0 | 0.0 | 0.00 | 0.00 | 0.00 | 1 | 1012.1 |
| 20260504034542 | 3 | 302 | 0.0 | 0.0 | 0.00 | 0.00 | 0.00 | 1 | 1011.9 |
| 20260504033038 | 3 | 302 | 0.0 | 0.0 | 0.00 | 0.00 | 0.00 | 1 | 1011.8 |